Date String (YYYY-MM-DD hh:mm:ss) UTC,Instrument flags,absolute air pressure of the measurement (hPa),sample flow rate (lpm),inlet stack bypass flow (lpm),air temperature of the measurement (°C),ambient temperature measured by the external sensor (°C),aerosol sample conditioner tube jacket temperature (°C),OPC LED temperature (°C),internal box temperature (°C),relative humidity of the measurement (%),span deviation,mass concentration of particles derived from Lorenz-Mie calculation of OPC scattering (μg/m³),mass concentration of particles derived from Lorenz-Mie calculation of OPC scattering (μg/m³),mass concentration of particles derived from Lorenz-Mie calculation of OPC scattering (μg/m³)
DateTimeUTC,F1_M11,P_M11,Q1_M11,Q2_M11,T1_M11,T2_M11,T3_M11,T4_M11,T5_M11,U1_M11,ZSPAN_M11,X0_M11,X2_M11,X1_M11
2024-04-04 08:00:00,SystemResetWarning,0827.7,5.00,000.00,024.3,023.4,000.0,033.0,026.1,011.9,0000.0,0003.11,0001.96,0001.52
2024-04-04 08:01:00,SystemResetWarning,0827.7,4.99,000.00,024.3,023.4,000.0,033.0,026.1,012.2,0000.0,0003.07,0001.95,0001.53
2024-04-04 08:02:00,SystemResetWarning,0827.8,4.99,000.00,024.3,023.4,000.0,033.0,026.1,012.9,0000.0,0003.08,0001.95,0001.53
2024-04-04 08:03:00,SystemResetWarning,0827.7,5.01,000.00,024.2,023.4,000.0,032.9,026.1,012.7,0000.0,0003.20,0001.97,0001.53
2024-04-04 08:04:00,SystemResetWarning,0827.7,5.01,000.00,024.2,023.3,000.0,032.9,026.1,012.6,0000.0,0003.16,0001.96,0001.53
2024-04-04 08:05:00,SystemResetWarning,0827.7,5.00,000.00,024.2,023.3,000.0,032.9,026.1,012.7,0000.0,0003.20,0001.99,0001.53
2024-04-04 08:06:00,SystemResetWarning,0827.7,5.00,000.00,024.2,023.3,000.0,032.9,026.1,012.4,0000.0,0003.16,0002.01,0001.54
2024-04-04 08:07:00,SystemResetWarning,0827.7,5.00,000.00,024.2,023.3,000.0,032.9,026.1,012.5,0000.0,0003.12,0002.01,0001.55
2024-04-04 08:08:00,SystemResetWarning,0827.7,4.99,000.00,024.2,023.3,000.0,032.9,026.1,012.4,0000.0,0004.16,0002.00,0001.54
2024-04-04 08:09:00,SystemResetWarning,0827.6,5.00,000.00,024.2,023.3,000.0,032.9,026.1,012.2,0000.0,0004.55,0002.03,0001.53
2024-04-04 08:10:00,SystemResetWarning,0827.6,5.01,000.00,024.2,023.3,000.0,032.9,026.0,012.0,0000.0,0004.61,0002.06,0001.54
2024-04-04 08:11:00,SystemResetWarning,0827.5,5.01,000.00,024.2,023.3,000.0,032.9,026.0,012.1,0000.0,0004.61,0002.08,0001.54
2024-04-04 08:12:00,SystemResetWarning,0827.5,5.00,000.00,024.2,023.3,000.0,032.9,026.0,012.1,0000.0,0004.94,0002.07,0001.54
2024-04-04 08:13:00,SystemResetWarning,0827.5,5.00,000.00,024.2,023.3,000.0,032.9,026.0,012.1,0000.0,0005.03,0002.05,0001.53
2024-04-04 08:14:00,SystemResetWarning,0827.4,4.99,000.00,024.1,023.2,000.0,032.8,026.0,012.0,0000.0,0005.00,0002.02,0001.51
2024-04-04 08:15:00,SystemResetWarning,0827.8,5.00,000.00,024.1,023.2,000.0,032.8,026.0,012.2,0000.0,0005.19,0002.02,0001.52
2024-04-04 08:16:00,SystemResetWarning,0827.5,5.00,000.00,024.1,023.2,000.0,032.8,026.0,012.1,0000.0,0005.10,0001.98,0001.52
2024-04-04 08:17:00,SystemResetWarning,0827.4,4.99,000.00,024.1,023.2,000.0,032.8,026.0,012.1,0000.0,0005.00,0001.95,0001.51
2024-04-04 08:18:00,SystemResetWarning,0827.4,5.00,000.00,024.1,023.2,000.0,032.8,026.0,012.1,0000.0,0004.99,0001.97,0001.52
2024-04-04 08:19:00,SystemResetWarning,0827.4,5.01,000.00,024.1,023.2,000.0,032.8,025.9,012.1,0000.0,0004.17,0001.99,0001.53
2024-04-04 08:20:00,SystemResetWarning,0827.4,5.01,000.00,024.1,023.2,000.0,032.8,025.9,012.1,0000.0,0003.78,0001.94,0001.53
2024-04-04 08:21:00,SystemResetWarning,0827.4,4.99,000.00,024.1,023.2,000.0,032.8,025.9,012.2,0000.0,0004.54,0001.89,0001.54
2024-04-04 08:22:00,SystemResetWarning,0827.4,5.00,000.00,024.1,023.2,000.0,032.8,025.9,012.1,0000.0,0004.47,0001.84,0001.53
2024-04-04 08:23:00,SystemResetWarning,0827.4,4.99,000.00,024.1,023.2,000.0,032.8,025.9,012.0,0000.0,0004.37,0001.87,0001.53
2024-04-04 08:24:00,SystemResetWarning,0827.4,4.99,000.00,024.0,023.2,000.0,032.8,025.9,012.0,0000.0,0004.28,0001.92,0001.54
2024-04-04 08:25:00,SystemResetWarning,0827.4,5.01,000.00,024.0,023.1,000.0,032.7,025.9,011.9,0000.0,0004.43,0001.98,0001.56
2024-04-04 08:26:00,SystemResetWarning,0827.4,5.00,000.00,024.0,023.1,000.0,032.7,025.9,012.0,0000.0,0004.27,0002.01,0001.55
2024-04-04 08:27:00,SystemResetWarning,0827.4,5.01,000.00,024.0,023.1,000.0,032.7,025.9,012.0,0000.0,0004.38,0002.06,0001.56
2024-04-04 08:28:00,SystemResetWarning,0827.4,4.99,000.00,024.0,023.1,000.0,032.7,025.9,012.1,0000.0,0004.48,0002.11,0001.57
2024-04-04 08:29:00,SystemResetWarning,0827.4,4.99,000.00,024.0,023.1,000.0,032.7,025.9,012.2,0000.0,0005.66,0002.14,0001.56
2024-04-04 08:30:00,SystemResetWarning,0827.4,5.01,000.00,024.0,023.1,000.0,032.7,025.9,012.3,0000.0,0006.04,0002.15,0001.55
2024-04-04 08:31:00,SystemResetWarning,0827.4,5.01,000.00,024.0,023.1,000.0,032.7,025.8,012.2,0000.0,0006.06,0002.16,0001.55
2024-04-04 08:32:00,SystemResetWarning,0827.4,5.01,000.00,024.0,023.1,000.0,032.7,025.8,012.2,0000.0,0005.05,0002.17,0001.54
2024-04-04 08:33:00,SystemResetWarning,0827.4,4.98,000.00,024.0,023.1,000.0,032.7,025.8,012.2,0000.0,0004.95,0002.18,0001.54
2024-04-04 08:34:00,SystemResetWarning,0827.3,5.00,000.00,024.0,023.1,000.0,032.7,025.8,012.0,0000.0,0004.96,0002.18,0001.53
2024-04-04 08:35:00,SystemResetWarning,0827.4,5.00,000.00,023.9,023.1,000.0,032.6,025.8,012.1,0000.0,0004.88,0002.15,0001.53
2024-04-04 08:36:00,SystemResetWarning,0827.4,4.99,000.00,023.9,023.1,000.0,032.6,025.7,012.4,0000.0,0004.88,0002.15,0001.51
2024-04-04 08:37:00,SystemResetWarning,0827.3,5.00,000.00,023.9,023.0,000.0,032.6,025.7,012.2,0000.0,0004.83,0002.14,0001.50
2024-04-04 08:38:00,SystemResetWarning,0827.4,5.00,000.00,023.9,023.0,000.0,032.6,025.7,012.2,0000.0,0004.80,0002.12,0001.49
2024-04-04 08:39:00,SystemResetWarning,0827.4,5.00,000.00,023.9,023.0,000.0,032.6,025.7,012.4,0000.0,0004.68,0002.08,0001.48
2024-04-04 08:40:00,SystemResetWarning,0827.4,5.00,000.00,023.9,023.0,000.0,032.6,025.7,012.5,0000.0,0004.02,0002.04,0001.48
2024-04-04 08:41:00,SystemResetWarning,0827.4,5.00,000.00,023.9,023.0,000.0,032.6,025.7,012.7,0000.0,0003.68,0002.02,0001.49
2024-04-04 08:42:00,SystemResetWarning,0827.4,5.00,000.00,023.9,023.0,000.0,032.6,025.7,012.8,0000.0,0004.06,0002.00,0001.49
2024-04-04 08:43:00,SystemResetWarning,0827.4,5.00,000.00,023.9,023.0,000.0,032.6,025.7,013.0,0000.0,0004.70,0001.98,0001.49
2024-04-04 08:44:00,SystemResetWarning,0827.4,5.00,000.00,023.9,023.0,000.0,032.6,025.7,012.8,0000.0,0005.55,0002.01,0001.49
2024-04-04 08:45:00,SystemResetWarning,0827.4,5.00,000.00,023.8,022.9,000.0,032.5,025.6,012.8,0000.0,0005.83,0002.01,0001.49
2024-04-04 08:46:00,SystemResetWarning,0827.3,5.00,000.00,023.8,022.9,000.0,032.5,025.6,012.9,0000.0,0005.84,0001.99,0001.49
2024-04-04 08:47:00,SystemResetWarning,0827.3,5.00,000.00,023.8,022.9,000.0,032.5,025.6,012.9,0000.0,0005.80,0001.98,0001.49
2024-04-04 08:48:00,SystemResetWarning,0827.3,5.00,000.00,023.8,022.9,000.0,032.5,025.6,013.2,0000.0,0005.70,0001.96,0001.51
2024-04-04 08:49:00,SystemResetWarning,0827.4,5.00,000.00,023.8,022.9,000.0,032.5,025.6,013.1,0000.0,0005.64,0001.95,0001.51
2024-04-04 08:50:00,SystemResetWarning,0827.4,5.00,000.00,023.8,022.9,000.0,032.5,025.6,012.9,0000.0,0005.65,0001.93,0001.52
2024-04-04 08:51:00,SystemResetWarning,0827.4,5.00,000.00,023.8,022.9,000.0,032.5,025.6,012.5,0000.0,0005.64,0001.93,0001.51
2024-04-04 08:52:00,SystemResetWarning,0827.3,5.00,000.00,023.8,022.9,000.0,032.5,025.6,012.4,0000.0,0005.73,0001.96,0001.51
2024-04-04 08:53:00,SystemResetWarning,0827.4,5.00,000.00,023.8,022.9,000.0,032.5,025.6,012.6,0000.0,0004.92,0001.98,0001.51
2024-04-04 08:54:00,SystemResetWarning,0827.4,5.00,000.00,023.8,022.9,000.0,032.5,025.6,012.5,0000.0,0004.78,0001.98,0001.51
2024-04-04 08:55:00,SystemResetWarning,0827.3,5.00,000.00,023.7,022.9,000.0,032.5,025.5,012.5,0000.0,0003.85,0002.03,0001.53
2024-04-04 08:56:00,SystemResetWarning,0827.3,5.00,000.00,023.7,022.9,000.0,032.4,025.5,012.2,0000.0,0003.40,0002.05,0001.54
2024-04-04 08:57:00,SystemResetWarning,0827.3,5.01,000.00,023.7,022.8,000.0,032.4,025.5,012.1,0000.0,0003.41,0002.14,0001.56
2024-04-04 08:58:00,SystemResetWarning,0827.3,4.99,000.00,023.7,022.8,000.0,032.4,025.5,012.1,0000.0,0004.04,0002.15,0001.56
2024-04-04 08:59:00,SystemResetWarning,0827.2,4.99,000.00,023.7,022.8,000.0,032.4,025.5,012.1,0000.0,0004.15,0002.15,0001.56
